sat.trackr.live / text

‹ back to catalog

STARLINK-34368

NORAD 64311 · 2025-123W

PAYLOAD ACTIVE UNKNOWN

§ Identity

Operator
Country
US
Launch date
2025-06-08
Launch site
AFWTR
Launch vehicle
Mass (kg)
RCS (m²)

Purposes: comms

External: N2YO · Heavens-Above · Gunter

§ Orbital elements

Epoch: 2026-05-24T23:33:56.198016Z

Period
96.11 min
Inclination
70.0027°
Eccentricity
0.0001552
Mean motion
14.98340315 rev/d
Perigee alt
570.9 km
Apogee alt
573.1 km
Semi-major
6,950.2 km
B*
1.1437e-4
RAAN
2.1979°
Arg perigee
265.1688°
Mean anomaly
94.9294°
Rev number
5,304

§ Raw data

STARLINK-343681 64311U 25123W   26144.98190044  .00001272  00000+0  11437-3 0  99902 64311  70.0027   2.1979 0001552 265.1688  94.9294 14.98340315 53047

JSON: /api/v1/satellites/64311 · /tle

For live sub-satellite position, see the globe view (requires WebGL).

§ Visibility from observer

Set your observer location to see the next 7 days of passes ≥ 10°. The values pass through the URL so the page stays shareable.

No JS? Fill the form by hand. The geolocation button needs JavaScript.